Theta_e
326 328 330 333 334 339 338 339 340 345 344 347 343 341 340 341 340 344 348 346 347 349 350 347 347 349 346 344 344 341 339 337 334 324 319 320 331 332 329 327 324 324 320
316 326 328 333 334 337 341 338 341 346 345 345 345 343 340 340 340 340 347 349 349 348 348 349 349 349 345 344 341 338 332 332 328 320 316 311 319 319 328 324 323 316 319
323 329 333 333 335 336 339 341 341 348 346 345 346 342 340 339 338 339 343 349 350 352 351 351 350 348 344 341 337 333 326 320 325 321 315 308 309 313 318 318 315 315 315
318 322 327 328 331 334 339 342 343 344 348 346 345 341 340 337 340 339 340 348 353 354 353 351 350 347 343 334 328 328 325 318 316 318 322 317 315 309 308 310 312 314 314
312 313 314 319 325 331 333 331 340 346 347 348 347 343 339 340 340 340 348 350 350 350 351 347 346 338 336 330 325 322 322 319 317 313 311 312 311 309 306 302 304 307 308
309 310 312 313 319 324 329 326 335 340 335 333 333 337 334 340 341 343 349 348 348 347 348 348 340 335 329 326 324 323 319 318 317 317 311 309 307 304 304 301 301 301 304
306 306 307 308 311 317 324 327 326 327 330 334 335 328 325 325 341 344 349 345 345 342 342 341 336 330 325 324 323 321 319 316 313 312 310 311 308 307 306 303 300 299 302
304 306 306 308 309 312 319 326 325 325 324 326 329 327 326 328 333 344 347 345 344 341 339 335 330 327 326 324 323 320 318 316 313 310 310 310 308 306 305 303 300 297 298
303 305 306 306 308 309 310 320 324 325 325 326 326 324 323 331 332 343 345 345 342 337 334 331 328 326 325 323 319 318 317 314 313 311 310 310 308 307 308 305 304 300 295
302 304 305 306 308 307 309 311 314 321 325 328 331 330 339 343 346 346 342 343 339 333 329 327 326 325 325 323 319 315 314 314 313 312 310 309 307 308 308 306 305 304 302
298 300 302 303 305 305 305 306 307 308 313 319 322 325 329 337 344 343 340 339 331 328 328 326 324 323 321 322 318 316 315 312 311 310 310 308 308 306 306 306 307 304 304
294 295 295 296 298 299 300 301 303 304 307 310 313 317 320 327 339 333 334 331 329 328 328 325 322 323 322 322 319 316 316 312 311 309 308 308 311 305 306 304 302 301 304
291 292 292 292 293 293 294 297 299 302 304 306 308 312 315 319 330 332 331 329 328 326 325 324 322 322 322 320 317 315 314 311 309 308 307 306 306 304 301 300 299 301 302
289 289 289 289 290 291 292 294 296 298 300 302 304 307 312 314 319 332 328 326 325 323 322 323 323 322 321 320 316 313 310 310 309 308 307 306 305 303 301 300 299 299 298
289 290 289 289 290 290 291 292 294 296 297 298 300 303 308 313 320 326 326 325 324 322 322 321 321 319 316 316 313 311 309 307 307 307 307 306 307 310 304 301 298 298 296
288 289 290 290 290 291 290 290 292 293 296 298 300 304 307 314 324 325 324 323 322 322 321 319 307 304 306 305 308 308 305 305 306 304 304 305 311 310 308 308 307 302 297
289 290 290 290 291 291 291 290 291 293 297 298 302 308 310 314 325 324 322 320 319 320 311 304 300 299 299 300 302 305 304 303 303 303 303 304 308 307 304 306 307 306 306
289 290 291 290 292 292 291 291 291 292 297 298 299 301 307 315 323 321 320 319 317 309 302 298 297 296 297 298 299 301 301 300 302 304 303 304 304 304 305 302 302 302 300
291 292 293 292 292 292 292 291 290 291 294 297 298 299 300 321 320 317 311 308 306 304 301 299 298 296 296 298 298 299 299 300 300 303 302 303 298 298 299 298 297 297 298
292 291 294 294 293 292 292 291 289 288 290 293 297 299 299 300 299 305 305 304 302 300 300 300 300 300 298 298 297 298 300 298 299 300 297 298 295 295 295 293 292 292 294
292 294 294 294 294 295 294 291 289 288 291 294 297 297 299 300 299 299 299 300 299 299 299 299 300 300 301 298 297 297 297 296 296 297 297 294 295 294 294 294 290 291 294
292 294 293 293 294 296 294 291 290 293 294 295 293 295 297 298 298 299 300 300 300 299 298 298 299 300 300 297 296 295 295 295 294 294 295 294 294 293 294 293 293 294 295
293 294 291 294 295 297 294 291 293 294 295 293 295 294 296 295 295 294 295 296 298 298 298 298 299 299 296 295 295 294 294 295 294 294 293 293 292 293 293 294 295 295 291
293 294 294 292 293 295 296 295 295 294 293 293 295 296 296 296 297 295 295 294 294 294 294 295 294 292 291 291 291 290 290 291 290 290 288 291 292 294 294 294 294 296 295
293 294 293 294 293 294 294 296 297 295 293 293 294 295 297 296 294 294 293 292 292 293 292 292 291 290 288 288 290 289 287 287 287 288 285 286 288 293 295 294 294 294 294
292 292 293 293 295 293 293 295 297 295 292 291 292 292 292 294 295 293 291 292 292 292 291 291 291 290 290 290 290 290 290 289 289 285 283 285 292 292 292 292 292 292 293
Wind_Speed
15 15 16 19 17 15 18 18 16 17 14 10 10 9 11 5 6 6 10 13 10 11 10 7 6 5 5 4 5 3 3 2 1 3 4 4 3 5 4 5 5 6 6
10 10 14 17 18 20 22 21 19 18 16 13 12 9 10 6 9 4 6 12 13 11 9 9 7 6 5 6 5 4 2 1 1 3 3 4 5 5 5 5 5 6 4
26 26 26 18 11 10 17 18 20 19 18 17 10 5 2 1 4 8 5 10 14 12 10 9 6 6 5 5 5 5 6 3 1 2 5 3 2 2 3 5 5 6 4
23 26 27 30 28 25 18 19 13 14 19 18 15 20 14 13 12 11 9 7 13 8 8 7 6 6 5 7 5 5 4 4 2 3 3 3 5 3 3 3 4 4 5
21 24 24 22 25 24 21 17 14 9 7 17 13 13 15 10 4 6 7 7 5 8 8 7 8 6 6 6 7 6 6 3 3 3 2 3 4 5 3 0 5 5 4
22 21 20 20 18 20 20 19 13 6 9 15 19 17 23 21 4 9 8 7 6 6 7 8 8 6 7 8 7 6 8 6 6 4 4 3 4 2 4 2 1 2 4
21 20 21 21 19 18 19 14 16 10 9 5 16 17 23 23 21 7 8 9 7 5 7 9 7 8 7 8 7 7 7 7 6 5 4 3 3 3 4 4 1 1 3
23 27 21 21 20 18 12 13 12 15 7 2 14 13 12 18 23 9 8 9 9 8 9 9 9 8 9 8 8 6 5 7 6 8 6 4 4 4 4 4 3 2 2
23 24 24 21 20 24 22 8 7 1 4 7 12 10 7 29 31 29 9 8 8 7 10 12 10 7 6 7 8 6 7 6 5 6 6 5 3 4 4 3 3 4 1
26 24 23 22 17 17 19 22 18 13 7 8 7 13 13 20 17 13 11 11 7 9 12 9 10 7 5 3 4 5 6 7 4 4 7 5 3 5 4 3 2 2 3
26 24 25 25 23 20 18 19 21 21 19 18 15 14 16 18 17 7 8 11 11 15 13 12 11 8 9 7 7 7 7 7 7 6 7 6 6 4 4 3 3 2 2
25 25 25 26 23 22 20 18 19 21 20 20 19 16 15 17 16 5 10 13 12 12 10 13 14 12 9 7 8 10 8 8 7 7 7 7 4 4 4 3 4 4 3
24 24 27 26 26 25 21 19 18 21 22 22 21 20 17 14 16 8 11 14 15 12 13 10 10 10 6 6 8 8 8 7 7 7 8 6 6 5 3 3 3 2 2
24 24 24 25 26 27 25 22 21 19 21 23 22 21 19 17 17 8 13 15 15 15 14 10 9 9 8 7 8 10 8 7 7 7 7 6 6 7 5 3 3 2 2
26 26 28 26 26 27 28 28 20 21 22 22 22 22 20 18 19 10 11 14 13 13 14 12 11 7 5 6 10 9 7 8 7 6 4 5 8 8 7 4 4 3 1
24 25 27 28 27 27 26 27 27 24 19 23 23 21 20 17 17 15 16 15 15 15 13 11 12 11 7 16 16 10 7 7 6 4 4 4 5 7 10 9 7 6 4
22 22 21 22 22 23 23 23 24 25 25 23 21 19 17 16 10 11 11 15 16 14 14 14 14 13 10 16 16 13 6 6 5 3 3 1 2 4 5 7 8 6 7
18 20 16 19 21 18 20 21 22 23 21 21 19 16 15 16 15 17 15 14 11 15 16 14 13 13 10 16 14 12 7 6 4 1 1 2 3 5 4 5 5 5 5
12 13 14 17 19 21 21 19 21 22 22 22 19 18 19 10 13 16 18 17 18 18 13 14 14 14 12 17 16 11 7 6 6 6 7 4 6 9 9 4 3 3 3
11 12 15 15 17 19 16 20 21 22 23 23 19 16 20 17 19 13 19 16 18 19 13 15 13 16 12 15 14 10 4 4 4 7 6 12 7 9 9 5 4 4 2
12 13 12 14 16 12 16 17 19 21 21 21 18 19 19 18 20 22 13 17 16 17 16 14 11 11 10 11 14 12 5 4 5 3 2 1 5 5 6 5 2 5 5
14 14 12 13 13 10 13 14 18 18 19 15 19 19 17 17 19 18 11 19 14 14 13 12 10 7 8 14 11 9 7 5 2 1 3 3 9 5 7 6 9 11 8
12 12 7 11 12 9 7 12 12 16 16 18 14 14 12 20 17 16 15 14 12 12 11 7 7 8 8 5 7 7 9 6 2 4 6 10 12 12 9 10 9 4 3
9 7 9 8 11 8 9 5 8 9 15 15 12 10 11 17 8 9 12 9 9 7 8 7 10 8 6 4 4 3 4 6 6 8 7 11 14 15 15 8 5 3 3
6 5 8 8 8 13 12 14 7 5 8 8 9 7 7 3 6 12 7 6 5 2 6 6 7 6 3 1 4 4 3 3 5 6 3 4 4 4 3 1 3 3 3
8 7 9 10 11 15 14 17 11 7 7 10 9 8 7 1 5 4 3 10 6 9 13 12 8 6 4 4 7 6 7 7 5 2 3 3 3 4 3 2 2 1 3
Wind_Direction
206 193 187 183 181 176 175 178 165 176 171 172 179 193 212 207 210 192 187 189 191 189 183 194 195 176 165 157 141 111 73 14 91 54 345 337 38 41 51 75 54 39 29
35 327 194 182 182 183 185 182 181 173 180 184 186 195 200 211 209 209 198 183 185 194 195 189 188 167 145 141 132 131 118 78 93 131 94 16 347 1 33 63 53 22 18
35 24 25 26 336 227 189 190 187 177 182 188 177 159 128 183 197 213 207 193 184 187 195 194 174 161 143 143 149 140 130 142 312 128 138 87 181 351 348 48 30 24 14
32 37 35 32 26 10 13 350 325 202 185 179 182 185 191 201 210 205 206 193 184 180 158 160 153 144 138 138 141 131 126 114 126 52 62 104 145 144 352 353 359 28 10
28 30 29 35 30 27 15 1 347 319 323 322 199 194 196 202 179 195 175 178 148 141 148 148 132 140 140 135 136 124 120 122 125 123 138 94 76 73 119 303 326 358 348
20 25 28 28 39 28 20 10 351 31 42 43 333 14 356 323 233 180 171 168 159 158 144 141 148 134 135 144 136 128 120 121 105 104 91 117 132 133 100 102 298 269 310
14 12 23 23 23 35 28 22 7 1 16 24 298 324 332 323 278 208 172 168 179 156 158 149 144 145 148 144 136 129 123 124 117 122 106 104 115 123 118 105 322 47 308
7 356 23 19 21 24 36 32 16 352 16 120 217 278 313 318 288 250 179 177 184 167 150 135 156 149 150 139 132 130 121 121 121 115 102 93 96 99 115 136 132 13 320
6 3 6 19 9 15 10 11 31 312 251 253 248 269 283 291 261 252 193 181 176 154 148 150 144 152 152 147 136 133 131 126 124 118 102 99 89 80 83 89 121 147 200
360 358 353 5 26 11 3 0 358 339 335 350 331 294 278 291 280 260 210 178 158 138 143 124 138 135 157 168 136 132 128 121 129 121 106 99 91 77 67 68 54 91 143
353 353 350 353 360 3 4 352 348 343 338 336 335 325 322 316 299 233 170 160 148 146 152 151 152 175 160 158 152 141 131 123 129 127 119 106 109 80 64 63 65 47 74
349 348 348 343 346 350 351 346 338 332 328 327 324 318 320 318 299 209 149 146 159 148 157 162 154 162 179 171 160 145 145 149 139 132 109 119 108 98 88 79 58 60 31
351 348 345 344 339 338 341 341 337 329 324 321 319 315 315 317 312 175 158 146 146 157 156 166 160 162 170 162 163 138 135 132 133 129 120 126 123 107 121 98 67 70 13
351 348 346 342 338 335 333 335 330 327 318 316 313 309 307 310 314 210 163 147 150 149 148 163 158 164 172 167 131 121 125 115 114 114 123 137 132 151 140 134 139 134 35
352 351 347 343 339 336 332 327 328 325 316 310 305 299 296 297 304 177 166 150 153 151 147 152 163 150 125 133 119 109 110 111 113 115 124 137 155 167 162 158 190 158 145
346 344 343 343 341 337 334 328 323 322 308 308 302 293 287 285 271 176 163 156 149 143 157 149 113 100 92 87 86 100 101 107 115 144 132 178 202 192 179 206 185 175 170
346 342 339 336 335 335 330 328 324 317 319 317 310 286 266 271 225 164 157 162 153 151 113 112 108 98 87 76 75 74 88 88 94 110 119 133 106 173 196 228 228 235 246
338 335 332 338 337 331 332 328 333 327 331 331 328 325 306 251 201 152 149 143 133 115 109 104 98 96 81 73 63 55 52 47 16 354 268 176 226 258 224 148 179 227 237
327 320 328 338 336 349 343 340 340 337 339 342 343 344 346 240 170 147 130 122 110 109 99 105 103 95 82 71 60 58 44 30 14 17 17 46 63 42 31 40 4 297 311
316 317 332 330 328 344 346 348 350 345 345 347 348 359 23 29 42 15 119 110 112 101 111 95 96 97 94 85 73 64 51 41 23 57 58 65 69 43 37 52 25 345 297
324 326 329 330 328 348 349 352 352 354 343 347 343 11 25 38 52 56 354 87 86 96 91 96 91 96 108 92 80 69 76 49 26 357 33 57 41 6 340 314 254 238 274
318 322 326 321 325 337 350 355 0 352 349 346 7 11 22 39 40 42 10 47 66 68 90 98 100 101 93 105 103 103 90 76 46 4 12 296 293 299 284 287 257 259 267
305 309 304 325 328 333 338 359 341 358 347 358 12 28 16 53 48 42 38 42 30 44 53 48 98 89 79 68 75 47 23 354 322 340 19 341 318 311 303 284 276 247 237
301 313 325 322 344 345 2 317 327 357 346 2 357 20 37 46 46 81 63 55 40 25 52 59 78 79 69 54 50 40 25 358 357 356 341 315 301 285 265 271 283 253 238
314 330 331 344 351 352 353 353 309 337 342 331 323 324 14 44 43 46 18 43 26 11 81 66 79 88 69 59 53 32 355 345 311 327 323 315 301 294 340 125 76 36 14
340 356 5 5 6 1 357 354 346 349 349 352 355 356 6 46 76 79 81 53 55 55 56 58 95 85 140 21 3 331 301 292 282 328 297 298 304 323 339 6 340 11 303